Location: Courcelles
(49.2596°N, 1.7419°E)
Time: 21:34:24
(UTC+00:00)

Cosmos 1833 Rocket - Pass Details

Date: 17 November 2025
Orbit: 829 x 840 km, 71.0° (Epoch: 05 December)

Event Time Altitude Azimuth Distance (km) Brightness Sun altitude
Rises 16:38:34 0° 330° (NNW) 3,406 5.9 -5.2°
Reaches altitude 10° 16:41:01 10° 330° (NNW) 2,468 5.2 -5.5°
Maximum altitude 16:46:42 83° 243° (WSW) 853 2.9 -6.4°
Drops below altitude 10° 16:52:20 10° 157° (SSE) 2,450 5.1 -7.3°
Sets 16:54:45 0° 156° (SSE) 3,379 5.8 -7.6°
